Location: *
(48.7358°N, 0.3111°E)
Time: 18:59:35
(UTC+00:00)

ATLAS 3B R/B - Pass Details

Date: 22 October 2019
Orbit: 1029 x 1166 km, 63.8° (Epoch: 12 November)

Event Time Altitude Azimuth Distance (km) Brightness Sun altitude
Exits shadow 05:38:00 11° 285° (WNW) 2,818 4.2 -9.1°
Maximum altitude 05:41:18 15° 254° (WSW) 2,519 4.1 -8.5°
Drops below altitude 10° 05:44:53 10° 222° (SW) 2,895 4.7 -8.0°
Sets 05:48:50 0° 201° (SSW) 3,874 5.5 -7.3°
